Temp
11 11 10 10 10 10 10 10 10 10 10 10 9 9 9 9 9 13 16 20 21 20 21 22 22 24 26 28 29 30 27 28 29 27 20 22 27 29 28 25 25 22 19 25 22
11 11 10 10 10 10 10 9 9 10 9 9 9 9 9 8 11 16 21 21 21 21 20 24 25 26 27 28 29 28 27 28 25 23 19 19 23 28 28 26 26 21 15 23 22
11 11 11 9 10 10 9 9 10 9 9 9 9 10 10 10 17 26 25 23 21 22 22 26 27 28 27 28 29 28 28 30 23 22 23 22 25 26 26 25 22 19 25 24 23
11 11 11 10 9 9 9 9 9 9 9 9 9 10 12 11 23 25 24 23 22 22 22 26 28 27 27 28 30 28 30 30 25 25 25 26 26 26 24 23 21 21 25 25 24
11 11 11 11 9 9 9 9 8 9 9 9 9 13 12 19 23 24 25 23 22 21 24 27 27 28 27 29 29 28 29 30 26 24 25 25 25 24 23 25 24 22 23 26 25
11 11 11 11 9 9 9 9 8 9 9 9 10 12 13 21 27 24 24 23 23 23 26 28 29 29 29 29 29 30 29 30 29 24 29 24 26 23 23 23 21 23 27 26 26
11 11 12 11 9 9 9 9 8 9 9 9 13 11 17 22 27 26 24 24 25 25 28 28 29 28 29 29 30 29 28 29 29 29 28 27 26 27 24 24 27 27 27 27 27
12 11 11 11 10 9 9 8 8 9 9 10 14 12 19 25 25 27 26 26 26 26 27 28 28 28 28 28 29 28 28 26 29 29 29 27 27 28 29 28 28 28 27 27 27
12 12 11 11 10 11 10 10 10 10 10 11 13 16 23 25 26 27 27 27 27 27 27 27 27 27 27 26 26 27 26 26 27 30 29 29 27 28 29 28 27 28 25 27 27
12 12 11 11 10 10 10 11 10 10 12 12 15 18 23 27 28 28 28 28 27 27 26 26 26 26 26 26 25 25 26 27 28 29 29 29 28 28 29 25 28 28 28 27 26
12 12 11 10 10 9 10 11 15 15 16 22 25 24 28 29 28 28 28 28 28 26 25 26 25 25 26 27 28 28 27 28 29 30 29 29 28 28 29 29 28 28 27 26 26
12 11 11 11 9 9 9 17 23 21 21 23 24 26 27 27 27 29 29 28 27 26 27 26 25 27 27 28 28 29 28 28 29 29 29 29 29 29 29 29 29 29 27 27 27
12 11 11 9 9 9 12 17 20 20 22 26 26 26 27 28 27 29 30 29 27 27 26 23 23 24 28 27 27 28 28 27 28 28 29 26 28 28 29 29 30 29 29 29 27
12 11 11 9 10 14 15 17 17 18 21 25 26 27 28 28 27 30 30 29 26 26 25 25 25 27 28 28 28 26 27 28 28 27 26 27 25 27 25 28 29 29 28 28 28
12 11 11 12 14 18 21 20 20 20 20 27 27 29 29 27 28 28 30 29 27 25 26 25 23 27 27 26 27 26 26 27 28 28 24 22 24 23 23 23 27 27 28 28 27
12 11 10 9 10 15 17 18 20 19 20 26 28 27 27 27 28 29 28 29 29 27 27 24 26 27 26 27 28 27 26 28 28 28 21 22 22 24 22 22 25 27 27 27 26
11 11 10 12 17 18 17 18 19 20 26 26 26 27 27 26 27 28 27 27 26 25 24 26 27 29 28 28 28 28 27 24 20 21 23 28 24 23 25 24 20 21 26 26 25
11 10 10 11 14 15 17 17 19 23 25 28 27 27 26 27 27 27 27 26 27 27 26 23 24 28 28 28 24 26 27 24 17 17 24 25 25 28 28 27 22 26 26 25 24
10 9 9 10 13 14 15 17 20 25 26 27 27 26 26 27 27 27 26 26 27 28 21 20 23 25 28 29 28 27 26 28 25 18 24 26 28 29 28 28 28 27 26 25 24
10 10 11 11 12 13 15 18 22 26 28 28 26 27 26 27 26 26 26 28 28 29 22 18 17 25 27 27 27 26 28 25 25 22 22 25 26 26 27 27 27 27 26 25 24
13 14 17 13 12 15 17 20 23 26 28 27 26 26 27 27 27 26 27 27 26 28 28 27 24 26 26 26 26 26 25 26 26 25 22 22 25 27 27 27 27 27 26 25 24
14 14 16 14 16 18 18 21 22 26 27 27 27 28 27 28 27 27 27 28 28 28 26 27 26 23 26 28 28 27 26 26 22 23 22 21 23 27 27 27 27 27 27 26 25
15 16 15 16 17 17 20 22 24 25 26 26 26 27 28 27 26 27 27 24 25 27 26 26 25 22 24 26 27 26 27 27 27 23 22 20 23 27 27 26 27 26 27 26 25
16 15 14 15 20 20 20 22 23 26 26 27 26 27 27 26 27 26 27 23 24 25 18 23 25 24 22 25 26 25 26 27 26 20 21 21 25 27 27 26 26 26 26 26 25
15 18 17 15 18 20 22 23 23 24 26 27 26 26 26 25 26 25 27 23 23 17 22 24 23 24 25 26 26 25 26 26 26 25 23 24 25 27 28 27 27 27 26 25 25
15 19 20 19 20 20 20 22 24 25 25 25 25 26 26 25 26 25 26 24 23 22 24 24 22 22 22 24 25 24 25 26 26 26 26 26 26 28 27 26 26 26 26 25 24
15 17 21 18 19 20 20 23 24 26 26 27 26 26 26 25 26 25 25 26 26 23 23 23 20 19 20 21 20 18 21 23 25 26 26 24 26 27 27 26 25 25 25 24 23
Height
824 823 820 819 817 815 813 811 809 806 804 801 797 795 794 790 787 786 781 771 772 771 774 774 774 772 769 764 759 754 771 769 755 757 790 769 757 751 752 763 770 780 783 772 778
821 820 819 817 815 813 810 810 807 804 803 801 796 792 791 789 786 777 764 766 768 770 773 771 770 769 767 762 757 760 769 760 764 771 786 784 766 758 759 765 771 786 788 779 780
820 818 816 815 813 811 809 807 805 802 802 799 796 791 790 789 783 759 759 761 765 767 769 766 764 763 766 756 753 755 766 744 770 766 763 776 769 764 770 774 783 795 773 781 787
818 815 815 813 811 809 808 805 804 801 801 798 793 790 789 791 777 760 758 760 764 766 770 765 761 764 765 760 748 761 748 744 763 756 762 770 770 774 773 773 776 785 773 783 786
817 815 813 811 809 808 805 803 802 799 800 798 792 790 790 784 767 760 759 760 764 767 767 760 761 761 764 751 749 756 748 743 754 760 769 765 773 776 778 765 771 778 778 781 784
814 813 811 809 806 806 803 801 800 797 798 796 793 791 795 782 758 760 760 762 766 769 764 758 755 751 752 748 750 746 746 745 747 759 752 770 771 777 778 778 781 778 779 783 784
813 812 809 808 806 804 801 800 798 797 797 794 792 792 793 772 759 761 763 764 765 766 761 758 755 755 750 752 742 746 759 751 752 751 757 757 776 767 769 776 774 777 780 782 783
809 810 808 806 803 801 799 798 797 794 794 792 791 793 783 760 760 759 761 760 762 764 761 759 758 756 757 751 751 760 757 774 754 752 751 760 779 764 756 761 768 771 776 780 784
807 807 806 805 802 799 798 796 796 793 792 791 791 791 775 759 758 754 756 757 758 761 761 761 762 763 760 770 770 763 779 774 766 747 750 755 770 762 756 759 768 771 779 779 784
803 805 804 803 801 799 797 795 795 794 792 793 790 791 767 755 750 751 753 754 757 758 762 762 764 767 765 769 785 781 774 765 764 754 752 757 765 763 758 766 760 768 772 780 787
800 801 802 801 799 798 799 798 797 793 791 770 761 762 748 748 750 750 751 754 753 760 766 760 771 774 767 758 757 760 762 764 751 745 754 756 762 764 759 759 764 767 769 778 787
797 798 799 798 798 798 799 796 778 781 776 762 761 757 754 754 752 744 748 753 757 767 757 765 773 761 757 756 757 753 759 756 751 749 756 754 759 758 757 759 760 763 769 776 778
793 795 797 796 796 797 794 788 780 782 774 751 751 754 751 750 751 745 744 746 757 762 766 781 779 764 755 758 760 754 758 764 761 757 753 768 764 759 755 754 755 758 759 764 772
790 792 793 796 797 790 789 781 782 787 780 753 750 748 745 743 751 736 737 745 761 764 768 771 764 759 754 756 752 771 760 757 761 768 781 766 790 767 773 761 756 756 759 762 766
785 789 790 793 788 786 780 781 782 785 794 733 741 735 737 746 740 740 738 741 753 764 765 772 774 759 759 764 755 769 758 760 754 759 779 790 791 784 777 778 761 759 758 758 763
781 784 789 792 789 781 782 783 784 790 789 743 733 742 743 741 738 731 741 740 739 754 759 768 753 752 763 753 751 754 761 755 752 758 805 788 798 783 792 776 768 761 765 765 765
776 779 784 787 783 782 785 785 789 784 737 741 741 740 743 746 743 741 747 753 760 774 776 762 755 739 743 754 749 752 761 786 813 806 790 749 778 772 754 762 772 776 761 766 770
772 776 778 782 781 783 784 788 779 751 744 720 731 737 747 738 742 743 746 755 748 750 759 780 778 748 741 749 769 763 759 784 839 841 788 765 776 746 735 740 758 752 754 763 771
769 774 776 774 778 782 784 784 763 736 728 728 730 743 744 733 737 741 746 749 743 742 781 797 784 758 743 741 747 755 762 748 774 804 785 767 749 736 736 742 740 745 753 762 770
764 770 765 770 777 782 779 765 746 723 715 720 739 733 743 736 744 742 743 732 737 731 755 793 814 759 750 748 746 755 747 773 768 800 801 772 761 754 749 747 747 745 753 760 768
757 759 747 764 774 774 763 750 739 718 713 722 730 732 729 733 736 739 737 734 734 734 735 744 766 759 754 758 756 758 764 760 761 769 794 797 774 746 749 745 747 748 749 757 765
745 748 736 751 762 753 751 738 731 719 714 721 719 720 726 722 733 735 739 728 722 730 746 740 749 769 758 739 738 746 753 754 785 787 782 793 782 742 745 743 745 746 744 749 757
730 736 741 738 743 744 739 735 725 722 718 725 724 718 714 723 735 730 728 738 735 735 745 742 758 779 768 752 745 755 750 748 751 771 786 802 783 742 744 747 744 746 745 747 753
721 731 734 735 723 730 734 729 727 713 713 715 720 714 719 725 721 733 732 744 741 740 756 749 753 762 779 762 750 757 753 747 754 786 785 783 764 746 743 746 743 746 747 747 750
708 700 702 715 718 717 721 719 719 719 712 709 718 718 724 734 729 735 728 744 746 758 752 752 765 757 750 745 748 753 749 747 753 755 775 766 758 743 736 737 736 738 743 748 749
698 686 691 697 709 715 716 715 710 709 713 718 718 714 717 727 726 734 728 738 747 751 750 751 766 763 768 754 752 759 752 747 747 745 747 747 749 732 732 736 741 743 744 749 752
693 683 679 693 702 710 707 704 703 702 702 703 710 712 718 720 716 724 721 722 728 744 752 755 769 777 779 772 775 786 765 755 749 741 744 758 744 732 736 739 744 746 747 749 753
Wind_Speed
18 18 18 16 16 18 21 21 20 19 18 18 17 18 20 21 23 14 14 15 7 17 8 9 15 16 15 15 18 16 12 14 17 12 5 9 1 10 16 7 2 6 8 13 27
19 19 18 16 17 18 19 20 19 17 17 17 16 16 19 20 19 20 21 16 20 13 13 14 13 16 12 14 14 12 11 17 15 13 8 2 13 6 3 17 10 7 27 19 23
19 18 17 16 17 18 19 19 18 16 15 14 16 16 18 17 10 1 4 12 15 16 20 14 14 13 13 16 15 15 15 15 4 11 16 21 6 16 6 3 16 8 19 18 19
17 16 17 18 17 18 18 18 17 14 14 13 14 15 14 8 3 6 6 8 12 12 14 20 14 11 14 16 13 15 17 13 8 6 6 10 18 8 1 7 6 7 6 15 15
18 17 17 17 16 18 17 17 15 13 13 14 12 11 7 7 9 4 3 11 15 11 15 12 11 11 15 13 10 14 15 1 13 12 13 20 14 7 6 2 4 2 8 14 10
18 18 18 19 15 17 16 15 14 12 12 13 11 6 5 9 4 6 5 16 12 12 13 12 10 11 12 11 11 9 13 5 7 19 8 19 7 13 15 12 4 10 13 13 14
19 18 18 18 16 16 15 14 12 11 12 13 8 5 11 12 4 5 8 11 13 18 8 9 11 8 7 4 5 4 5 3 2 5 9 8 20 6 29 23 22 19 14 14 14
18 18 18 17 17 15 15 12 11 10 12 11 4 3 8 6 10 13 10 10 11 12 15 7 10 10 12 12 3 7 11 4 4 7 8 12 11 11 17 17 16 18 14 11 12
18 18 18 18 17 14 13 11 11 12 12 4 3 4 8 1 10 14 12 11 9 13 11 4 7 11 12 8 9 8 6 9 13 12 4 7 15 13 13 7 17 15 11 14 11
19 19 18 17 15 12 11 10 10 9 7 7 9 7 11 9 9 3 6 7 6 8 6 8 5 7 9 8 6 5 5 11 13 11 15 10 14 13 11 21 10 14 12 11 10
19 18 17 16 11 10 7 6 5 5 13 9 4 7 8 2 5 9 10 9 4 10 9 9 6 6 7 10 2 8 14 19 12 11 9 10 15 15 14 10 12 14 17 16 12
19 18 15 14 9 7 4 6 7 8 9 21 20 16 17 8 7 11 14 10 9 6 2 4 6 8 15 10 15 13 9 8 9 6 7 10 11 15 15 15 14 13 19 16 16
19 17 14 10 5 7 13 17 13 18 6 12 19 16 15 16 15 13 11 10 3 6 7 4 13 20 15 17 15 11 5 8 9 7 9 6 11 16 15 15 14 13 12 13 16
20 17 14 7 5 10 10 15 22 12 5 10 16 12 16 8 16 18 19 9 9 6 4 3 21 15 11 11 12 8 12 5 7 11 7 5 8 10 7 14 14 13 13 13 15
22 19 17 15 9 11 10 9 6 8 4 13 18 16 14 15 14 11 6 8 6 10 7 6 10 11 8 5 9 4 15 10 16 9 5 9 9 10 11 11 15 15 12 11 11
23 20 15 11 15 17 8 10 5 5 6 8 13 11 15 13 17 13 13 10 8 6 12 6 11 18 13 12 10 11 10 14 10 10 2 15 10 11 10 19 11 14 11 9 11
25 22 23 11 4 9 9 6 6 7 8 10 14 15 16 15 15 13 17 16 9 9 10 5 16 6 10 9 5 8 9 5 8 5 8 8 9 8 20 10 12 16 16 12 11
25 22 24 20 13 9 7 6 12 13 20 5 14 16 18 15 16 15 13 17 18 17 8 6 13 12 8 11 7 19 10 3 7 4 9 3 5 2 21 16 28 25 16 15 14
24 18 14 18 21 7 5 11 11 13 20 10 14 13 17 16 10 14 18 17 19 18 6 5 4 17 7 5 4 6 7 7 2 14 6 3 13 10 9 9 1 18 16 16 15
21 11 21 20 19 10 6 18 18 21 9 13 15 16 16 15 10 12 14 16 16 8 23 10 7 22 8 5 5 6 8 3 2 2 4 8 10 5 5 4 2 9 14 14 14
21 5 13 26 24 6 12 18 21 24 8 8 16 16 17 13 14 13 10 11 5 7 5 7 16 6 6 8 9 6 7 7 6 3 1 3 3 6 7 6 4 6 13 14 15
18 8 32 42 11 11 14 22 23 23 9 9 12 16 15 14 15 13 14 8 9 8 5 8 4 4 9 2 4 8 10 12 3 5 2 1 6 3 5 4 2 4 8 14 16
12 8 29 29 13 12 18 25 25 24 15 15 11 14 11 12 10 12 8 4 5 3 1 3 3 4 8 8 7 8 11 9 4 3 5 3 4 4 3 1 1 4 5 7 13
10 10 6 10 12 19 22 21 25 23 15 14 15 12 8 10 8 9 7 3 3 2 4 4 5 8 6 10 5 12 12 11 11 3 3 8 13 8 10 9 8 7 5 6 9
6 11 10 13 17 20 20 20 24 18 16 16 16 18 11 9 11 8 8 7 3 3 2 2 7 11 13 15 3 11 9 10 13 10 10 10 14 12 8 5 1 3 8 5 7
7 10 12 11 20 21 20 26 26 21 17 13 12 12 14 10 11 10 11 8 7 8 7 4 1 4 3 10 14 12 15 13 15 13 13 15 14 12 7 9 8 5 4 2 7
20 17 9 14 21 19 20 23 26 19 18 16 17 14 16 7 9 10 12 7 4 9 9 6 3 2 2 5 7 6 9 16 15 15 11 11 10 9 6 2 3 4 5 2 5
Wind_Direction
309 311 309 312 317 318 320 321 319 316 315 313 319 320 315 313 312 297 260 229 259 248 258 252 218 231 242 245 245 239 262 265 271 309 7 329 108 37 95 114 86 130 44 111 114
299 305 306 309 315 317 320 319 317 315 312 313 315 319 316 314 304 275 255 243 246 249 221 234 205 220 231 237 240 239 240 256 74 108 102 345 294 136 245 142 194 138 188 118 120
290 300 308 307 312 317 317 315 314 314 311 311 311 319 312 325 287 345 3 226 229 224 222 223 217 217 235 238 229 231 251 272 105 138 161 194 191 53 7 10 93 313 118 117 136
284 297 302 303 309 314 314 316 313 317 310 307 311 312 323 302 285 20 3 186 203 208 224 254 231 228 250 247 234 246 237 274 47 183 173 39 77 39 334 238 201 192 104 138 135
284 296 298 302 308 311 314 314 311 312 306 305 309 334 348 242 262 338 10 166 171 184 231 230 230 226 241 248 231 233 272 247 106 56 222 101 117 152 237 217 54 285 253 120 132
285 290 297 303 306 308 310 309 306 304 298 298 311 5 271 264 73 86 137 158 175 199 235 237 230 238 283 260 208 244 269 153 153 176 180 78 228 156 215 204 229 197 146 140 154
285 286 294 298 304 305 307 304 299 297 290 292 323 356 271 253 8 129 168 174 192 211 225 247 282 291 301 248 238 326 294 246 207 140 104 142 203 180 170 188 155 154 145 163 158
278 283 292 294 301 301 301 300 294 288 282 290 328 333 260 259 259 248 201 204 215 234 259 326 309 299 304 338 263 241 235 202 184 193 187 167 109 136 132 145 160 147 148 157 142
272 279 287 292 297 299 298 296 291 284 285 276 325 198 262 265 237 235 217 229 210 224 240 302 268 254 263 250 229 221 216 186 225 215 191 240 132 144 155 150 146 149 183 157 151
267 274 281 288 295 299 296 299 287 297 279 243 267 290 251 225 206 168 184 219 172 187 207 236 226 228 229 224 205 196 233 206 217 191 228 213 133 157 179 145 174 148 148 138 165
261 267 276 286 289 288 309 305 226 198 239 225 198 235 166 224 193 220 176 188 178 187 215 195 196 209 323 258 18 241 245 221 192 172 213 200 153 169 178 196 161 170 162 157 173
254 259 266 281 278 269 242 250 332 5 288 221 243 266 270 278 257 236 166 210 180 227 194 186 275 149 217 245 244 253 234 154 114 167 232 225 175 171 187 191 177 187 169 177 168
246 249 255 264 248 234 227 235 281 347 263 245 215 233 237 223 237 208 186 212 298 215 191 88 279 289 265 209 241 257 288 219 160 186 214 11 245 173 186 197 202 193 188 179 163
241 239 241 222 221 228 234 258 251 279 276 210 197 226 235 214 228 240 191 217 201 158 209 239 227 253 228 207 231 270 338 216 274 215 202 210 222 187 1 212 199 198 200 189 166
231 231 237 214 322 213 7 197 158 199 263 180 191 200 205 209 217 196 215 259 221 89 232 189 301 242 248 345 319 119 273 274 245 258 75 357 303 186 191 246 218 215 200 195 159
225 223 226 227 256 244 340 317 180 233 237 158 156 177 216 204 232 207 185 246 210 235 165 245 256 274 107 231 254 171 231 250 276 269 136 227 204 153 196 221 264 195 204 198 163
220 215 211 196 225 251 261 256 211 221 242 180 183 196 209 202 220 228 188 202 213 213 178 242 241 191 172 209 211 233 245 238 7 336 270 292 160 223 210 186 128 225 187 171 157
213 210 220 223 249 291 237 221 226 203 236 208 187 197 207 196 210 205 208 210 211 245 233 165 263 180 202 237 125 272 255 236 168 293 309 35 265 85 158 195 176 204 164 159 162
196 196 220 231 214 264 230 211 213 228 208 215 187 198 211 207 196 193 217 209 222 219 135 1 193 279 343 263 281 289 244 300 316 198 285 279 265 129 83 102 219 152 159 164 170
176 190 229 213 201 216 230 224 220 239 254 187 208 199 206 201 193 194 203 220 221 241 131 167 314 248 195 244 251 265 337 305 277 295 272 299 312 109 152 108 132 165 161 168 172
181 203 221 179 164 209 219 217 235 240 238 209 211 204 220 179 197 197 220 145 161 219 235 241 219 154 139 216 249 180 242 242 302 250 352 333 319 36 48 61 141 229 167 173 177
188 207 155 152 178 208 220 214 230 242 198 250 257 223 223 198 193 222 220 243 163 226 211 251 308 266 236 294 315 319 284 211 155 274 151 351 276 48 97 76 143 239 205 177 180
186 181 163 170 194 203 212 224 231 238 190 218 237 250 205 241 193 215 219 62 66 169 274 274 234 260 285 197 212 246 255 264 263 72 207 175 263 159 153 249 252 243 234 191 182
181 181 168 214 213 199 202 212 221 237 236 205 227 233 203 221 216 208 200 109 109 90 43 327 246 252 239 254 334 208 239 243 233 149 233 256 269 243 203 211 195 185 283 233 191
212 204 172 189 201 198 201 213 212 210 220 217 212 214 198 210 202 213 197 118 128 111 178 237 242 266 274 268 268 293 284 236 239 236 234 253 260 270 337 4 149 94 174 247 271
210 204 169 184 185 201 210 218 217 196 190 212 230 207 201 196 223 196 213 155 180 168 199 193 231 325 306 293 288 271 278 274 275 272 253 268 269 278 42 28 21 2 307 244 283
222 272 179 168 185 200 213 211 220 194 200 207 211 197 218 121 85 59 54 163 210 160 199 157 135 139 238 25 342 318 243 252 264 266 262 262 271 291 305 142 14 324 313 213 294